Year,Month,Day,Hour,Minute,Value (Times are PST for temperature in C)
2006,09,25,00,00,12.20
2006,09,25,00,01,12.20
2006,09,25,00,02,12.20
2006,09,25,00,03,12.10
2006,09,25,00,04,12.10
2006,09,25,00,05,12.00
2006,09,25,00,06,12.00
2006,09,25,00,07,12.00
2006,09,25,00,08,12.00
2006,09,25,00,09,12.00
2006,09,25,00,10,12.00
2006,09,25,00,11,12.00
2006,09,25,00,12,12.00
2006,09,25,00,13,12.00
2006,09,25,00,14,12.10
2006,09,25,00,15,12.10
2006,09,25,00,16,12.10
2006,09,25,00,17,12.20
2006,09,25,00,18,12.20
2006,09,25,00,19,12.30
2006,09,25,00,20,12.30
2006,09,25,00,21,12.30
2006,09,25,00,22,12.30
2006,09,25,00,23,12.30
2006,09,25,00,24,12.30
2006,09,25,00,25,12.30
2006,09,25,00,26,12.30
2006,09,25,00,27,12.30
2006,09,25,00,28,12.30
2006,09,25,00,29,12.30
2006,09,25,00,30,12.20
2006,09,25,00,31,12.20
2006,09,25,00,32,12.10
2006,09,25,00,33,12.10
2006,09,25,00,34,12.10
2006,09,25,00,35,12.10
2006,09,25,00,36,12.00
2006,09,25,00,37,12.00
2006,09,25,00,38,12.00
2006,09,25,00,39,11.90
2006,09,25,00,40,11.90
2006,09,25,00,41,11.90
2006,09,25,00,42,11.90
2006,09,25,00,43,11.90
2006,09,25,00,44,12.00
2006,09,25,00,45,12.00
2006,09,25,00,46,12.00
2006,09,25,00,47,12.00
2006,09,25,00,48,12.00
2006,09,25,00,49,12.10
2006,09,25,00,50,12.10
2006,09,25,00,51,12.10
2006,09,25,00,52,12.20
2006,09,25,00,53,12.30
2006,09,25,00,54,12.30
2006,09,25,00,55,12.40
2006,09,25,00,56,12.40
2006,09,25,00,57,12.50
2006,09,25,00,58,12.50
2006,09,25,00,59,12.50
2006,09,25,01,00,12.60
2006,09,25,01,01,12.60
2006,09,25,01,02,12.60
2006,09,25,01,03,12.60
2006,09,25,01,04,12.60
2006,09,25,01,05,12.60
2006,09,25,01,06,12.60
2006,09,25,01,07,12.60
2006,09,25,01,08,12.60
2006,09,25,01,09,12.70
2006,09,25,01,10,12.70
2006,09,25,01,11,12.70
2006,09,25,01,12,12.80
2006,09,25,01,13,12.80
2006,09,25,01,14,12.80
2006,09,25,01,15,12.70
2006,09,25,01,16,12.70
2006,09,25,01,17,12.70
2006,09,25,01,18,12.60
2006,09,25,01,19,12.60
2006,09,25,01,20,12.60
2006,09,25,01,21,12.60
2006,09,25,01,22,12.50
2006,09,25,01,23,12.50
2006,09,25,01,24,12.50
2006,09,25,01,25,12.40
2006,09,25,01,26,12.40
2006,09,25,01,27,12.30
2006,09,25,01,28,12.30
2006,09,25,01,29,12.30
2006,09,25,01,30,12.20
2006,09,25,01,31,12.20
2006,09,25,01,32,12.10
2006,09,25,01,33,12.10
2006,09,25,01,34,12.00
2006,09,25,01,35,12.00
2006,09,25,01,36,11.90
2006,09,25,01,37,11.80
2006,09,25,01,38,11.80
2006,09,25,01,39,11.80
2006,09,25,01,40,11.80
2006,09,25,01,41,11.80
2006,09,25,01,42,11.70
2006,09,25,01,43,11.80
2006,09,25,01,44,11.80
2006,09,25,01,45,11.80
2006,09,25,01,46,11.70
2006,09,25,01,47,11.70
2006,09,25,01,48,11.70
2006,09,25,01,49,11.60
2006,09,25,01,50,11.60
2006,09,25,01,51,11.70
2006,09,25,01,52,11.70
2006,09,25,01,53,11.70
2006,09,25,01,54,11.70
2006,09,25,01,55,11.70
2006,09,25,01,56,11.60
2006,09,25,01,57,11.60
2006,09,25,01,58,11.60
2006,09,25,01,59,11.60
2006,09,25,02,00,11.70
2006,09,25,02,01,11.70
2006,09,25,02,02,11.70
2006,09,25,02,03,11.80
2006,09,25,02,04,11.80
2006,09,25,02,05,11.80
2006,09,25,02,06,11.80
2006,09,25,02,07,11.80
2006,09,25,02,08,11.90
2006,09,25,02,09,11.90
2006,09,25,02,10,11.90
2006,09,25,02,11,12.00
2006,09,25,02,12,12.00
2006,09,25,02,13,12.00
2006,09,25,02,14,12.00
2006,09,25,02,15,12.00
2006,09,25,02,16,12.10
2006,09,25,02,17,12.10
2006,09,25,02,18,12.10
2006,09,25,02,19,12.20
2006,09,25,02,20,12.30
2006,09,25,02,21,12.30
2006,09,25,02,22,12.30
2006,09,25,02,23,12.30
2006,09,25,02,24,12.30
2006,09,25,02,25,12.30
2006,09,25,02,26,12.30
2006,09,25,02,27,12.30
2006,09,25,02,28,12.30
2006,09,25,02,29,12.30
2006,09,25,02,30,12.30
2006,09,25,02,31,12.30
2006,09,25,02,32,12.30
2006,09,25,02,33,12.30
2006,09,25,02,34,12.30
2006,09,25,02,35,12.30
2006,09,25,02,36,12.30
2006,09,25,02,37,12.30
2006,09,25,02,38,12.30
2006,09,25,02,39,12.30
2006,09,25,02,40,12.30
2006,09,25,02,41,12.30
2006,09,25,02,42,12.30
2006,09,25,02,43,12.30
2006,09,25,02,44,12.30
2006,09,25,02,45,12.30
2006,09,25,02,46,12.30
2006,09,25,02,47,12.30
2006,09,25,02,48,12.30
2006,09,25,02,49,12.30
2006,09,25,02,50,12.30
2006,09,25,02,51,12.30
2006,09,25,02,52,12.30
2006,09,25,02,53,12.30
2006,09,25,02,54,12.30
2006,09,25,02,55,12.30
2006,09,25,02,56,12.30
2006,09,25,02,57,12.30
2006,09,25,02,58,12.30
2006,09,25,02,59,12.30
2006,09,25,03,00,12.30
2006,09,25,03,01,12.30
2006,09,25,03,02,12.30
2006,09,25,03,03,12.30
2006,09,25,03,04,12.30
2006,09,25,03,05,12.30
2006,09,25,03,06,12.30
2006,09,25,03,07,12.30
2006,09,25,03,08,12.30
2006,09,25,03,09,12.30
2006,09,25,03,10,12.30
2006,09,25,03,11,12.30
2006,09,25,03,12,12.30
2006,09,25,03,13,12.30
2006,09,25,03,14,12.30
2006,09,25,03,15,12.30
2006,09,25,03,16,12.30
2006,09,25,03,17,12.30
2006,09,25,03,18,12.30
2006,09,25,03,19,12.40
2006,09,25,03,20,12.40
2006,09,25,03,21,12.50
2006,09,25,03,22,12.50
2006,09,25,03,23,12.50
2006,09,25,03,24,12.60
2006,09,25,03,25,12.60
2006,09,25,03,26,12.60
2006,09,25,03,27,12.70
2006,09,25,03,28,12.70
2006,09,25,03,29,12.70
2006,09,25,03,30,12.80
2006,09,25,03,31,12.80
2006,09,25,03,32,12.80
2006,09,25,03,33,12.80
2006,09,25,03,34,12.80
2006,09,25,03,35,12.80
2006,09,25,03,36,12.80
2006,09,25,03,37,12.80
2006,09,25,03,38,12.90
2006,09,25,03,39,12.90
2006,09,25,03,40,13.00
2006,09,25,03,41,13.00
2006,09,25,03,42,13.10
2006,09,25,03,43,13.10
2006,09,25,03,44,13.10
2006,09,25,03,45,13.10
2006,09,25,03,46,13.10
2006,09,25,03,47,13.10
2006,09,25,03,48,13.10
2006,09,25,03,49,13.10
2006,09,25,03,50,13.10
2006,09,25,03,51,13.10
2006,09,25,03,52,13.20
2006,09,25,03,53,13.20
2006,09,25,03,54,13.20
2006,09,25,03,55,13.20
2006,09,25,03,56,13.20
2006,09,25,03,57,13.20
2006,09,25,03,58,13.20
2006,09,25,03,59,13.20
2006,09,25,04,00,13.20
2006,09,25,04,01,13.20
2006,09,25,04,02,13.30
2006,09,25,04,03,13.30
2006,09,25,04,04,13.30
2006,09,25,04,05,13.30
2006,09,25,04,06,13.30
2006,09,25,04,07,13.30
2006,09,25,04,08,13.30
2006,09,25,04,09,13.30
2006,09,25,04,10,13.30
2006,09,25,04,11,13.30
2006,09,25,04,12,13.30
2006,09,25,04,13,13.40
2006,09,25,04,14,13.40
2006,09,25,04,15,13.40
2006,09,25,04,16,13.40
2006,09,25,04,17,13.40
2006,09,25,04,18,13.40
2006,09,25,04,19,13.40
2006,09,25,04,20,13.40
2006,09,25,04,21,13.40
2006,09,25,04,22,13.40
2006,09,25,04,23,13.40
2006,09,25,04,24,13.50
2006,09,25,04,25,13.50
2006,09,25,04,26,13.50
2006,09,25,04,27,13.60
2006,09,25,04,28,13.60
2006,09,25,04,29,13.60
2006,09,25,04,30,13.60
2006,09,25,04,31,13.60
2006,09,25,04,32,13.60
2006,09,25,04,33,13.60
2006,09,25,04,34,13.60
2006,09,25,04,35,13.60
2006,09,25,04,36,13.60
2006,09,25,04,37,13.60
2006,09,25,04,38,13.60
2006,09,25,04,39,13.70
2006,09,25,04,40,13.70
2006,09,25,04,41,13.70
2006,09,25,04,42,13.70
2006,09,25,04,43,13.70
2006,09,25,04,44,13.70
2006,09,25,04,45,13.70
2006,09,25,04,46,13.70
2006,09,25,04,47,13.70
2006,09,25,04,48,13.70
2006,09,25,04,49,13.70
2006,09,25,04,50,13.70
2006,09,25,04,51,13.70
2006,09,25,04,52,13.60
2006,09,25,04,53,13.60
2006,09,25,04,54,13.50
2006,09,25,04,55,13.40
2006,09,25,04,56,13.40
2006,09,25,04,57,13.20
2006,09,25,04,58,13.10
2006,09,25,04,59,13.00
2006,09,25,05,00,12.80
2006,09,25,05,01,12.80
2006,09,25,05,02,12.70
2006,09,25,05,03,12.60
2006,09,25,05,04,12.60
2006,09,25,05,05,12.50
2006,09,25,05,06,12.50
2006,09,25,05,07,12.50
2006,09,25,05,08,12.30
2006,09,25,05,09,12.30
2006,09,25,05,10,12.30
2006,09,25,05,11,12.20
2006,09,25,05,12,12.10
2006,09,25,05,13,12.00
2006,09,25,05,14,11.90
2006,09,25,05,15,11.90
2006,09,25,05,16,11.80
2006,09,25,05,17,11.80
2006,09,25,05,18,11.80
2006,09,25,05,19,11.70
2006,09,25,05,20,11.60
2006,09,25,05,21,11.60
2006,09,25,05,22,11.60
2006,09,25,05,23,11.60
2006,09,25,05,24,11.60
2006,09,25,05,25,11.60
2006,09,25,05,26,11.60
2006,09,25,05,27,11.60
2006,09,25,05,28,11.70
2006,09,25,05,29,11.70
2006,09,25,05,30,11.70
2006,09,25,05,31,11.70
2006,09,25,05,32,11.70
2006,09,25,05,33,11.70
2006,09,25,05,34,11.70
2006,09,25,05,35,11.70
2006,09,25,05,36,11.70
2006,09,25,05,37,11.70
2006,09,25,05,38,11.70
2006,09,25,05,39,11.70
2006,09,25,05,40,11.60
2006,09,25,05,41,11.60
2006,09,25,05,42,11.50
2006,09,25,05,43,11.40
2006,09,25,05,44,11.40
2006,09,25,05,45,11.40
2006,09,25,05,46,11.30
2006,09,25,05,47,11.20
2006,09,25,05,48,11.20
2006,09,25,05,49,11.10
2006,09,25,05,50,11.10
2006,09,25,05,51,11.00
2006,09,25,05,52,10.90
2006,09,25,05,53,10.90
2006,09,25,05,54,10.80
2006,09,25,05,55,10.80
2006,09,25,05,56,10.70
2006,09,25,05,57,10.60
2006,09,25,05,58,10.60
2006,09,25,05,59,10.60
2006,09,25,06,00,10.50
2006,09,25,06,01,10.40
2006,09,25,06,02,10.40
2006,09,25,06,03,10.40
2006,09,25,06,04,10.40
2006,09,25,06,05,10.40
2006,09,25,06,06,10.30
2006,09,25,06,07,10.30
2006,09,25,06,08,10.30
2006,09,25,06,09,10.30
2006,09,25,06,10,10.30
2006,09,25,06,11,10.30
2006,09,25,06,12,10.20
2006,09,25,06,13,10.20
2006,09,25,06,14,10.20
2006,09,25,06,15,10.20
2006,09,25,06,16,10.20
2006,09,25,06,17,10.20
2006,09,25,06,18,10.10
2006,09,25,06,19,10.10
2006,09,25,06,20,10.10
2006,09,25,06,21,10.10
2006,09,25,06,22,10.10
2006,09,25,06,23,10.10
2006,09,25,06,24,10.20
2006,09,25,06,25,10.20
2006,09,25,06,26,10.20
2006,09,25,06,27,10.20
2006,09,25,06,28,10.10
2006,09,25,06,29,10.10
2006,09,25,06,30,10.10
2006,09,25,06,31,10.10
2006,09,25,06,32,10.10
2006,09,25,06,33,10.10
2006,09,25,06,34,10.10
2006,09,25,06,35,10.10
2006,09,25,06,36,10.10
2006,09,25,06,37,10.10
2006,09,25,06,38,10.10
2006,09,25,06,39,10.10
2006,09,25,06,40,10.10
2006,09,25,06,41,10.10
2006,09,25,06,42,10.10
2006,09,25,06,43,10.20
2006,09,25,06,44,10.20
2006,09,25,06,45,10.20
2006,09,25,06,46,10.20
2006,09,25,06,47,10.10
2006,09,25,06,48,10.10
2006,09,25,06,49,10.10
2006,09,25,06,50,10.20
2006,09,25,06,51,10.20
2006,09,25,06,52,10.30
2006,09,25,06,53,10.30
2006,09,25,06,54,10.30
2006,09,25,06,55,10.30
2006,09,25,06,56,10.30
2006,09,25,06,57,10.30
2006,09,25,06,58,10.30
2006,09,25,06,59,10.30
2006,09,25,07,00,10.30
2006,09,25,07,01,10.30
2006,09,25,07,02,10.20
2006,09,25,07,03,10.20
2006,09,25,07,04,10.20
2006,09,25,07,05,10.20
2006,09,25,07,06,10.20
2006,09,25,07,07,10.20
2006,09,25,07,08,10.20
2006,09,25,07,09,10.20
2006,09,25,07,10,10.20
2006,09,25,07,11,10.20
2006,09,25,07,12,10.20
2006,09,25,07,13,10.20
2006,09,25,07,14,10.20
2006,09,25,07,15,10.10
2006,09,25,07,16,10.10
2006,09,25,07,17,10.10
2006,09,25,07,18,10.10
2006,09,25,07,19,10.10
2006,09,25,07,20,10.10
2006,09,25,07,21,10.10
2006,09,25,07,22,10.10
2006,09,25,07,23,10.20
2006,09,25,07,24,10.20
2006,09,25,07,25,10.30
2006,09,25,07,26,10.30
2006,09,25,07,27,10.30
2006,09,25,07,28,10.40
2006,09,25,07,29,10.40
2006,09,25,07,30,10.40
2006,09,25,07,31,10.40
2006,09,25,07,32,10.40
2006,09,25,07,33,10.50
2006,09,25,07,34,10.60
2006,09,25,07,35,10.60
2006,09,25,07,36,10.60
2006,09,25,07,37,10.70
2006,09,25,07,38,10.80
2006,09,25,07,39,10.90
2006,09,25,07,40,10.90
2006,09,25,07,41,11.10
2006,09,25,07,42,11.10
2006,09,25,07,43,11.10
2006,09,25,07,44,11.10
2006,09,25,07,45,11.20
2006,09,25,07,46,11.30
2006,09,25,07,47,11.40
2006,09,25,07,48,11.40
2006,09,25,07,49,11.40
2006,09,25,07,50,11.50
2006,09,25,07,51,11.60
2006,09,25,07,52,11.50
2006,09,25,07,53,11.40
2006,09,25,07,54,11.40
2006,09,25,07,55,11.40
2006,09,25,07,56,11.30
2006,09,25,07,57,11.30
2006,09,25,07,58,11.20
2006,09,25,07,59,11.20
2006,09,25,08,00,11.10
2006,09,25,08,01,11.10
2006,09,25,08,02,11.20
2006,09,25,08,03,11.30
2006,09,25,08,04,11.40
2006,09,25,08,05,11.50
2006,09,25,08,06,11.60
2006,09,25,08,07,11.70
2006,09,25,08,08,11.80
2006,09,25,08,09,11.80
2006,09,25,08,10,11.90
2006,09,25,08,11,11.90
2006,09,25,08,12,11.90
2006,09,25,08,13,11.90
2006,09,25,08,14,11.90
2006,09,25,08,15,11.90
2006,09,25,08,16,11.90
2006,09,25,08,17,11.90
2006,09,25,08,18,12.00
2006,09,25,08,19,12.00
2006,09,25,08,20,12.10
2006,09,25,08,21,12.20
2006,09,25,08,22,12.20
2006,09,25,08,23,12.30
2006,09,25,08,24,12.30
2006,09,25,08,25,12.30
2006,09,25,08,26,12.40
2006,09,25,08,27,12.50
2006,09,25,08,28,12.60
2006,09,25,08,29,12.70
2006,09,25,08,30,12.80
2006,09,25,08,31,13.00
2006,09,25,08,32,13.10
2006,09,25,08,33,13.20
2006,09,25,08,34,13.20
2006,09,25,08,35,13.30
2006,09,25,08,36,13.40
2006,09,25,08,37,13.40
2006,09,25,08,38,13.50
2006,09,25,08,39,13.60
2006,09,25,08,40,13.70
2006,09,25,08,41,13.70
2006,09,25,08,42,13.90
2006,09,25,08,43,13.90
2006,09,25,08,44,14.00
2006,09,25,08,45,14.10
2006,09,25,08,46,14.20
2006,09,25,08,47,14.20
2006,09,25,08,48,14.40
2006,09,25,08,49,14.50
2006,09,25,08,50,14.60
2006,09,25,08,51,14.70
2006,09,25,08,52,14.80
2006,09,25,08,53,14.90
2006,09,25,08,54,15.00
2006,09,25,08,55,15.00
2006,09,25,08,56,15.10
2006,09,25,08,57,15.20
2006,09,25,08,58,15.30
2006,09,25,08,59,15.40
2006,09,25,09,00,15.50
2006,09,25,09,01,15.60
2006,09,25,09,02,15.70
2006,09,25,09,03,15.80
2006,09,25,09,04,15.90
2006,09,25,09,05,16.00
2006,09,25,09,06,16.10
2006,09,25,09,07,16.20
2006,09,25,09,08,16.30
2006,09,25,09,09,16.40
2006,09,25,09,10,16.40
2006,09,25,09,11,16.40
2006,09,25,09,12,16.40
2006,09,25,09,13,16.60
2006,09,25,09,14,16.60
2006,09,25,09,15,16.60
2006,09,25,09,16,16.60
2006,09,25,09,17,16.60
2006,09,25,09,18,16.60
2006,09,25,09,19,16.60
2006,09,25,09,20,16.60
2006,09,25,09,21,16.70
2006,09,25,09,22,16.70
2006,09,25,09,23,16.80
2006,09,25,09,24,16.90
2006,09,25,09,25,16.90
2006,09,25,09,26,17.00
2006,09,25,09,27,17.00
2006,09,25,09,28,17.20
2006,09,25,09,29,17.20
2006,09,25,09,30,17.30
2006,09,25,09,31,17.30
2006,09,25,09,32,17.40
2006,09,25,09,33,17.40
2006,09,25,09,34,17.50
2006,09,25,09,35,17.60
2006,09,25,09,36,17.60
2006,09,25,09,37,17.70
2006,09,25,09,38,17.80
2006,09,25,09,39,17.80
2006,09,25,09,40,17.90
2006,09,25,09,41,17.90
2006,09,25,09,42,17.90
2006,09,25,09,43,18.10
2006,09,25,09,44,18.20
2006,09,25,09,45,18.30
2006,09,25,09,46,18.30
2006,09,25,09,47,18.40
2006,09,25,09,48,18.50
2006,09,25,09,49,18.50
2006,09,25,09,50,18.60
2006,09,25,09,51,18.70
2006,09,25,09,52,18.70
2006,09,25,09,53,18.80
2006,09,25,09,54,18.90
2006,09,25,09,55,18.90
2006,09,25,09,56,18.90
2006,09,25,09,57,19.10
2006,09,25,09,58,19.10
2006,09,25,09,59,19.10
2006,09,25,10,00,19.10
2006,09,25,10,01,19.10
2006,09,25,10,02,19.20
2006,09,25,10,03,19.30
2006,09,25,10,04,19.30
2006,09,25,10,05,19.40
2006,09,25,10,06,19.50
2006,09,25,10,07,19.60
2006,09,25,10,08,19.70
2006,09,25,10,09,19.70
2006,09,25,10,10,19.80
2006,09,25,10,11,19.90
2006,09,25,10,12,20.10
2006,09,25,10,13,20.20
2006,09,25,10,14,20.20
2006,09,25,10,15,20.20
2006,09,25,10,16,20.20
2006,09,25,10,17,20.30
2006,09,25,10,18,20.30
2006,09,25,10,19,20.30
2006,09,25,10,20,20.30
2006,09,25,10,21,20.40
2006,09,25,10,22,20.50
2006,09,25,10,23,20.60
2006,09,25,10,24,20.60
2006,09,25,10,25,20.50
2006,09,25,10,26,20.40
2006,09,25,10,27,20.40
2006,09,25,10,28,20.30
2006,09,25,10,29,20.20
2006,09,25,10,30,20.20
2006,09,25,10,31,20.20
2006,09,25,10,32,20.10
2006,09,25,10,33,20.10
2006,09,25,10,34,20.20
2006,09,25,10,35,20.30
2006,09,25,10,36,20.40
2006,09,25,10,37,20.50
2006,09,25,10,38,20.50
2006,09,25,10,39,20.50
2006,09,25,10,40,20.50
2006,09,25,10,41,20.50
2006,09,25,10,42,20.50
2006,09,25,10,43,20.50
2006,09,25,10,44,20.50
2006,09,25,10,45,20.50
2006,09,25,10,46,20.60
2006,09,25,10,47,20.60
2006,09,25,10,48,20.50
2006,09,25,10,49,20.50
2006,09,25,10,50,20.70
2006,09,25,10,51,20.80
2006,09,25,10,52,20.90
2006,09,25,10,53,20.90
2006,09,25,10,54,20.80
2006,09,25,10,55,20.80
2006,09,25,10,56,20.80
2006,09,25,10,57,20.70
2006,09,25,10,58,20.70
2006,09,25,10,59,20.70
2006,09,25,11,00,20.70
2006,09,25,11,01,20.60
2006,09,25,11,02,20.60
2006,09,25,11,03,20.60
2006,09,25,11,04,20.50
2006,09,25,11,05,20.60
2006,09,25,11,06,20.70
2006,09,25,11,07,20.70
2006,09,25,11,08,20.70
2006,09,25,11,09,20.60
2006,09,25,11,10,20.50
2006,09,25,11,11,20.50
2006,09,25,11,12,20.60
2006,09,25,11,13,20.60
2006,09,25,11,14,20.60
2006,09,25,11,15,20.50
2006,09,25,11,16,20.50
2006,09,25,11,17,20.50
2006,09,25,11,18,20.50
2006,09,25,11,19,20.40
2006,09,25,11,20,20.40
2006,09,25,11,21,20.40
2006,09,25,11,22,20.50
2006,09,25,11,23,20.70
2006,09,25,11,24,20.70
2006,09,25,11,25,20.70
2006,09,25,11,26,20.60
2006,09,25,11,27,20.50
2006,09,25,11,28,20.50
2006,09,25,11,29,20.70
2006,09,25,11,30,20.70
2006,09,25,11,31,20.60
2006,09,25,11,32,20.50
2006,09,25,11,33,20.50
2006,09,25,11,34,20.50
2006,09,25,11,35,20.60
2006,09,25,11,36,20.60
2006,09,25,11,37,20.70
2006,09,25,11,38,20.80
2006,09,25,11,39,21.00
2006,09,25,11,40,21.00
2006,09,25,11,41,21.00
2006,09,25,11,42,21.00
2006,09,25,11,43,21.10
2006,09,25,11,44,21.10
2006,09,25,11,45,21.10
2006,09,25,11,46,21.20
2006,09,25,11,47,21.20
2006,09,25,11,48,21.20
2006,09,25,11,49,21.20
2006,09,25,11,50,21.20
2006,09,25,11,51,21.20
2006,09,25,11,52,21.10
2006,09,25,11,53,21.00
2006,09,25,11,54,21.00
2006,09,25,11,55,21.10
2006,09,25,11,56,21.10
2006,09,25,11,57,21.20
2006,09,25,11,58,21.30
2006,09,25,11,59,21.30
2006,09,25,12,00,21.30
2006,09,25,12,01,21.40
2006,09,25,12,02,21.40
2006,09,25,12,03,21.30
2006,09,25,12,04,21.30
2006,09,25,12,05,21.30
2006,09,25,12,06,21.30
2006,09,25,12,07,21.40
2006,09,25,12,08,21.30
2006,09,25,12,09,21.30
2006,09,25,12,10,21.30
2006,09,25,12,11,21.30
2006,09,25,12,12,21.20
2006,09,25,12,13,21.10
2006,09,25,12,14,21.10
2006,09,25,12,15,21.10
2006,09,25,12,16,21.10
2006,09,25,12,17,21.30
2006,09,25,12,18,21.20
2006,09,25,12,19,21.10
2006,09,25,12,20,21.10
2006,09,25,12,21,21.20
2006,09,25,12,22,21.30
2006,09,25,12,23,21.30
2006,09,25,12,24,21.30
2006,09,25,12,25,21.30
2006,09,25,12,26,21.30
2006,09,25,12,27,21.30
2006,09,25,12,28,21.30
2006,09,25,12,29,21.30
2006,09,25,12,30,21.30
2006,09,25,12,31,21.30
2006,09,25,12,32,21.40
2006,09,25,12,33,21.50
2006,09,25,12,34,21.60
2006,09,25,12,35,21.60
2006,09,25,12,36,21.80
2006,09,25,12,37,21.80
2006,09,25,12,38,21.70
2006,09,25,12,39,21.50
2006,09,25,12,40,21.60
2006,09,25,12,41,21.60
2006,09,25,12,42,21.60
2006,09,25,12,43,21.40
2006,09,25,12,44,21.30
2006,09,25,12,45,21.30
2006,09,25,12,46,21.20
2006,09,25,12,47,21.20
2006,09,25,12,48,21.20
2006,09,25,12,49,21.10
2006,09,25,12,50,21.20
2006,09,25,12,51,21.30
2006,09,25,12,52,21.40
2006,09,25,12,53,21.50
2006,09,25,12,54,21.60
2006,09,25,12,55,21.50
2006,09,25,12,56,21.50
2006,09,25,12,57,21.60
2006,09,25,12,58,21.60
2006,09,25,12,59,21.50
2006,09,25,13,00,21.40
2006,09,25,13,01,21.30
2006,09,25,13,02,21.30
2006,09,25,13,03,21.50
2006,09,25,13,04,21.60
2006,09,25,13,05,21.60
2006,09,25,13,06,21.60
2006,09,25,13,07,21.70
2006,09,25,13,08,21.70
2006,09,25,13,09,21.60
2006,09,25,13,10,21.70
2006,09,25,13,11,21.80
2006,09,25,13,12,21.80
2006,09,25,13,13,21.80
2006,09,25,13,14,21.70
2006,09,25,13,15,21.60
2006,09,25,13,16,21.50
2006,09,25,13,17,21.40
2006,09,25,13,18,21.20
2006,09,25,13,19,21.20
2006,09,25,13,20,21.20
2006,09,25,13,21,21.20
2006,09,25,13,22,21.30
2006,09,25,13,23,21.40
2006,09,25,13,24,21.50
2006,09,25,13,25,21.60
2006,09,25,13,26,21.60
2006,09,25,13,27,21.50
2006,09,25,13,28,21.40
2006,09,25,13,29,21.30
2006,09,25,13,30,21.30
2006,09,25,13,31,21.30
2006,09,25,13,32,21.40
2006,09,25,13,33,21.40
2006,09,25,13,34,21.30
2006,09,25,13,35,21.40
2006,09,25,13,36,21.60
2006,09,25,13,37,21.70
2006,09,25,13,38,21.60
2006,09,25,13,39,21.60
2006,09,25,13,40,21.60
2006,09,25,13,41,21.70
2006,09,25,13,42,21.80
2006,09,25,13,43,21.90
2006,09,25,13,44,22.00
2006,09,25,13,45,22.00
2006,09,25,13,46,21.90
2006,09,25,13,47,21.80
2006,09,25,13,48,21.80
2006,09,25,13,49,21.80
2006,09,25,13,50,21.80
2006,09,25,13,51,21.70
2006,09,25,13,52,21.70
2006,09,25,13,53,21.80
2006,09,25,13,54,21.80
2006,09,25,13,55,21.90
2006,09,25,13,56,21.90
2006,09,25,13,57,21.80
2006,09,25,13,58,21.90
2006,09,25,13,59,22.10
2006,09,25,14,00,22.30
2006,09,25,14,01,22.50
2006,09,25,14,02,22.50
2006,09,25,14,03,22.40
2006,09,25,14,04,22.20
2006,09,25,14,05,22.00
2006,09,25,14,06,22.00
2006,09,25,14,07,21.90
2006,09,25,14,08,21.90
2006,09,25,14,09,21.80
2006,09,25,14,10,21.90
2006,09,25,14,11,21.90
2006,09,25,14,12,21.80
2006,09,25,14,13,21.70
2006,09,25,14,14,21.90
2006,09,25,14,15,22.00
2006,09,25,14,16,22.10
2006,09,25,14,17,22.20
2006,09,25,14,18,22.10
2006,09,25,14,19,22.10
2006,09,25,14,20,22.00
2006,09,25,14,21,21.90
2006,09,25,14,22,21.90
2006,09,25,14,23,22.00
2006,09,25,14,24,21.90
2006,09,25,14,25,21.90
2006,09,25,14,26,21.90
2006,09,25,14,27,21.80
2006,09,25,14,28,21.70
2006,09,25,14,29,21.70
2006,09,25,14,30,21.60
2006,09,25,14,31,21.70
2006,09,25,14,32,21.70
2006,09,25,14,33,21.80
2006,09,25,14,34,21.70
2006,09,25,14,35,21.80
2006,09,25,14,36,21.90
2006,09,25,14,37,21.90
2006,09,25,14,38,22.00
2006,09,25,14,39,22.00
2006,09,25,14,40,22.00
2006,09,25,14,41,22.10
2006,09,25,14,42,22.20
2006,09,25,14,43,22.30
2006,09,25,14,44,22.40
2006,09,25,14,45,22.40
2006,09,25,14,46,22.40
2006,09,25,14,47,22.50
2006,09,25,14,48,22.50
2006,09,25,14,49,22.40
2006,09,25,14,50,22.40
2006,09,25,14,51,22.40
2006,09,25,14,52,22.50
2006,09,25,14,53,22.40
2006,09,25,14,54,22.40
2006,09,25,14,55,22.50
2006,09,25,14,56,22.60
2006,09,25,14,57,22.50
2006,09,25,14,58,22.50
2006,09,25,14,59,22.60
2006,09,25,15,00,22.70
2006,09,25,15,01,22.70
2006,09,25,15,02,22.70
2006,09,25,15,03,22.70
2006,09,25,15,04,22.70
2006,09,25,15,05,22.70
2006,09,25,15,06,22.70
2006,09,25,15,07,22.70
2006,09,25,15,08,22.60
2006,09,25,15,09,22.60
2006,09,25,15,10,22.60
2006,09,25,15,11,22.70
2006,09,25,15,12,22.80
2006,09,25,15,13,22.80
2006,09,25,15,14,22.80
2006,09,25,15,15,22.90
2006,09,25,15,16,22.80
2006,09,25,15,17,22.90
2006,09,25,15,18,22.90
2006,09,25,15,19,22.90
2006,09,25,15,20,22.90
2006,09,25,15,21,22.90
2006,09,25,15,22,22.90
2006,09,25,15,23,22.80
2006,09,25,15,24,22.80
2006,09,25,15,25,22.80
2006,09,25,15,26,22.80
2006,09,25,15,27,22.60
2006,09,25,15,28,22.60
2006,09,25,15,29,22.60
2006,09,25,15,30,22.60
2006,09,25,15,31,22.60
2006,09,25,15,32,22.70
2006,09,25,15,33,22.80
2006,09,25,15,34,23.00
2006,09,25,15,35,23.20
2006,09,25,15,36,23.30
2006,09,25,15,37,23.30
2006,09,25,15,38,23.30
2006,09,25,15,39,23.30
2006,09,25,15,40,23.20
2006,09,25,15,41,23.20
2006,09,25,15,42,23.30
2006,09,25,15,43,23.40
2006,09,25,15,44,23.40
2006,09,25,15,45,23.40
2006,09,25,15,46,23.40
2006,09,25,15,47,23.30
2006,09,25,15,48,23.30
2006,09,25,15,49,23.30
2006,09,25,15,50,23.30
2006,09,25,15,51,23.10
2006,09,25,15,52,23.10
2006,09,25,15,53,23.10
2006,09,25,15,54,23.00
2006,09,25,15,55,22.90
2006,09,25,15,56,23.00
2006,09,25,15,57,23.10
2006,09,25,15,58,23.20
2006,09,25,15,59,23.30
2006,09,25,16,00,23.40
2006,09,25,16,01,23.40
2006,09,25,16,02,23.30
2006,09,25,16,03,23.30
2006,09,25,16,04,23.30
2006,09,25,16,05,23.20
2006,09,25,16,06,23.20
2006,09,25,16,07,23.20
2006,09,25,16,08,23.20
2006,09,25,16,09,23.20
2006,09,25,16,10,23.20
2006,09,25,16,11,23.20
2006,09,25,16,12,23.20
2006,09,25,16,13,23.20
2006,09,25,16,14,23.20
2006,09,25,16,15,23.30
2006,09,25,16,16,23.20
2006,09,25,16,17,23.20
2006,09,25,16,18,23.20
2006,09,25,16,19,23.30
2006,09,25,16,20,23.30
2006,09,25,16,21,23.40
2006,09,25,16,22,23.50
2006,09,25,16,23,23.60
2006,09,25,16,24,23.70
2006,09,25,16,25,23.70
2006,09,25,16,26,23.80
2006,09,25,16,27,23.90
2006,09,25,16,28,23.90
2006,09,25,16,29,23.90
2006,09,25,16,30,23.90
2006,09,25,16,31,23.80
2006,09,25,16,32,23.70
2006,09,25,16,33,23.70
2006,09,25,16,34,23.70
2006,09,25,16,35,23.70
2006,09,25,16,36,23.80
2006,09,25,16,37,23.90
2006,09,25,16,38,24.00
2006,09,25,16,39,24.10
2006,09,25,16,40,24.20
2006,09,25,16,41,24.30
2006,09,25,16,42,24.40
2006,09,25,16,43,24.40
2006,09,25,16,44,24.40
2006,09,25,16,45,24.50
2006,09,25,16,46,24.40
2006,09,25,16,47,24.50
2006,09,25,16,48,24.50
2006,09,25,16,49,24.50
2006,09,25,16,50,24.50
2006,09,25,16,51,24.60
2006,09,25,16,52,24.60
2006,09,25,16,53,24.60
2006,09,25,16,54,24.70
2006,09,25,16,55,24.70
2006,09,25,16,56,24.70
2006,09,25,16,57,24.60
2006,09,25,16,58,24.50
2006,09,25,16,59,24.30
2006,09,25,17,00,24.10
2006,09,25,17,01,23.80
2006,09,25,17,02,23.40
2006,09,25,17,03,23.20
2006,09,25,17,04,22.90
2006,09,25,17,05,22.70
2006,09,25,17,06,22.50
2006,09,25,17,07,22.40
2006,09,25,17,08,22.30
2006,09,25,17,09,22.20
2006,09,25,17,10,22.20
2006,09,25,17,11,22.10
2006,09,25,17,12,22.00
2006,09,25,17,13,21.90
2006,09,25,17,14,21.70
2006,09,25,17,15,21.60
2006,09,25,17,16,21.40
2006,09,25,17,17,21.30
2006,09,25,17,18,21.20
2006,09,25,17,19,21.00